Date String (YYYY-MM-DD hh:mm:ss) UTC,Instrument flags,absolute air pressure of the measurement (hPa),sample flow rate (lpm),inlet stack bypass flow (lpm),air temperature of the measurement (°C),ambient temperature measured by the external sensor (°C),aerosol sample conditioner tube jacket temperature (°C),OPC LED temperature (°C),internal box temperature (°C),relative humidity of the measurement (%),span deviation,mass concentration of particles derived from Lorenz-Mie calculation of OPC scattering (μg/m³),mass concentration of particles derived from Lorenz-Mie calculation of OPC scattering (μg/m³),mass concentration of particles derived from Lorenz-Mie calculation of OPC scattering (μg/m³)
DateTimeUTC,F1_M11,P_M11,Q1_M11,Q2_M11,T1_M11,T2_M11,T3_M11,T4_M11,T5_M11,U1_M11,ZSPAN_M11,X2_M11,X0_M11,X1_M11
2024-01-07 10:00:00,SystemResetWarning,0817.2,4.99,000.00,018.9,018.4,000.0,027.1,020.1,7.3,0000.0,0001.21,0002.21,0000.91
2024-01-07 10:01:00,SystemResetWarning,0817.1,5.00,000.00,018.8,018.3,000.0,027.1,020.0,7.3,0000.0,0001.20,0002.19,0000.90
2024-01-07 10:02:00,SystemResetWarning,0817.1,5.01,000.00,018.8,018.2,000.0,027.1,020.0,7.3,0000.0,0001.20,0002.17,0000.91
2024-01-07 10:03:00,SystemResetWarning,0817.1,5.01,000.00,018.8,018.1,000.0,027.1,020.0,7.4,0000.0,0001.22,0002.23,0000.92
2024-01-07 10:04:00,SystemResetWarning,0817.1,5.00,000.00,018.8,018.0,000.0,027.1,020.0,7.4,0000.0,0001.22,0001.93,0000.92
2024-01-07 10:05:00,SystemResetWarning,0817.1,5.00,000.00,018.8,017.9,000.0,027.1,020.0,7.4,0000.0,0001.20,0001.79,0000.92
2024-01-07 10:06:00,SystemResetWarning,0817.1,4.99,000.00,018.8,017.8,000.0,027.2,020.0,7.4,0000.0,0001.18,0001.77,0000.90
2024-01-07 10:07:00,SystemResetWarning,0817.1,5.00,000.00,018.7,017.7,000.0,027.2,020.0,7.4,0000.0,0001.18,0001.74,0000.90
2024-01-07 10:08:00,SystemResetWarning,0817.1,5.02,000.00,018.7,017.6,000.0,027.2,020.0,7.4,0000.0,0001.19,0001.77,0000.89
2024-01-07 10:09:00,SystemResetWarning,0817.1,4.99,000.00,018.7,017.6,000.0,027.2,020.0,7.4,0000.0,0001.18,0001.76,0000.89
2024-01-07 10:10:00,SystemResetWarning,0817.1,5.00,000.00,018.7,017.6,000.0,027.2,020.0,7.4,0000.0,0001.15,0001.69,0000.88
2024-01-07 10:11:00,SystemResetWarning,0817.1,5.01,000.00,018.7,017.5,000.0,027.2,020.0,7.5,0000.0,0001.14,0002.06,0000.88
2024-01-07 10:12:00,SystemResetWarning,0817.2,5.01,000.00,018.7,017.5,000.0,027.2,020.0,7.5,0000.0,0001.13,0002.07,0000.87
2024-01-07 10:13:00,SystemResetWarning,0817.2,5.00,000.00,018.7,017.4,000.0,027.2,020.0,7.5,0000.0,0001.17,0002.20,0000.87
2024-01-07 10:14:00,SystemResetWarning,0817.2,5.00,000.00,018.7,017.4,000.0,027.2,020.0,7.6,0000.0,0001.14,0002.13,0000.85
2024-01-07 10:15:00,SystemResetWarning,0817.2,5.00,000.00,018.7,017.4,000.0,027.2,020.0,7.6,0000.0,0001.14,0002.14,0000.85
2024-01-07 10:16:00,SystemResetWarning,0817.2,5.00,000.00,018.7,017.3,000.0,027.2,020.0,7.7,0000.0,0001.19,0002.35,0000.85
2024-01-07 10:17:00,SystemResetWarning,0817.1,5.00,000.00,018.7,017.3,000.0,027.2,020.0,7.7,0000.0,0001.22,0002.49,0000.86
2024-01-07 10:18:00,SystemResetWarning,0817.1,5.00,000.00,018.7,017.3,000.0,027.2,020.0,7.7,0000.0,0001.24,0002.67,0000.85
2024-01-07 10:19:00,SystemResetWarning,0817.1,5.00,000.00,018.7,017.3,000.0,027.2,020.0,7.7,0000.0,0001.25,0002.67,0000.86
2024-01-07 10:20:00,SystemResetWarning,0817.1,5.00,000.00,018.7,017.3,000.0,027.2,020.0,7.7,0000.0,0001.24,0002.67,0000.86
2024-01-07 10:21:00,SystemResetWarning,0817.1,5.00,000.00,018.6,017.2,000.0,027.2,020.0,7.7,0000.0,0001.23,0002.67,0000.85
2024-01-07 10:22:00,SystemResetWarning,0817.1,5.01,000.00,018.6,017.2,000.0,027.2,020.0,7.7,0000.0,0001.24,0002.35,0000.85
2024-01-07 10:23:00,SystemResetWarning,0817.1,5.01,000.00,018.6,017.2,000.0,027.2,020.0,7.7,0000.0,0001.23,0002.30,0000.85
2024-01-07 10:24:00,SystemResetWarning,0817.0,5.01,000.00,018.6,017.2,000.0,027.2,020.1,7.8,0000.0,0001.21,0002.25,0000.84
2024-01-07 10:25:00,SystemResetWarning,0817.1,5.00,000.00,018.7,017.8,000.0,027.2,020.4,7.7,0000.0,0001.20,0002.24,0000.84
2024-01-07 10:26:00,SystemResetWarning,0817.1,4.99,000.00,018.8,018.6,000.0,027.2,020.7,7.7,0000.0,0001.21,0002.27,0000.84
2024-01-07 10:27:00,SystemResetWarning,0817.1,4.99,000.00,018.9,018.7,000.0,027.1,020.5,7.6,0000.0,0001.16,0002.07,0000.83
2024-01-07 10:28:00,SystemResetWarning,0817.0,5.00,000.00,018.9,018.7,000.0,027.1,020.3,7.7,0000.0,0001.15,0001.95,0000.84
2024-01-07 10:29:00,SystemResetWarning,0817.0,5.01,000.00,018.9,018.5,000.0,027.1,020.1,7.7,0000.0,0001.13,0001.81,0000.84
2024-01-07 10:30:00,SystemResetWarning,0817.0,5.00,000.00,018.8,018.3,000.0,027.1,020.0,7.7,0000.0,0001.12,0001.77,0000.83
2024-01-07 10:31:00,SystemResetWarning,0816.9,4.99,000.00,018.8,018.1,000.0,027.1,020.0,7.8,0000.0,0001.11,0001.75,0000.83
2024-01-07 10:32:00,SystemResetWarning,0816.9,5.00,000.00,018.8,017.9,000.0,027.1,020.0,7.8,0000.0,0001.13,0001.89,0000.83
2024-01-07 10:33:00,SystemResetWarning,0816.9,5.00,000.00,018.8,017.8,000.0,027.2,020.0,7.8,0000.0,0001.11,0001.81,0000.84
2024-01-07 10:34:00,SystemResetWarning,0816.9,5.00,000.00,018.7,017.7,000.0,027.2,020.0,7.8,0000.0,0001.11,0001.81,0000.85
2024-01-07 10:35:00,SystemResetWarning,0816.9,5.00,000.00,018.7,017.6,000.0,027.2,020.0,7.9,0000.0,0001.09,0001.75,0000.85
2024-01-07 10:36:00,SystemResetWarning,0816.9,5.00,000.00,018.7,017.6,000.0,027.2,020.0,7.9,0000.0,0001.11,0001.80,0000.85
2024-01-07 10:37:00,SystemResetWarning,0816.9,5.00,000.00,018.7,017.5,000.0,027.2,020.0,7.9,0000.0,0001.09,0001.74,0000.85
2024-01-07 10:38:00,SystemResetWarning,0816.9,5.00,000.00,018.7,017.5,000.0,027.2,020.0,7.9,0000.0,0001.10,0001.77,0000.86
2024-01-07 10:39:00,SystemResetWarning,0816.9,5.00,000.00,018.7,017.4,000.0,027.2,020.0,7.9,0000.0,0001.10,0001.74,0000.86
2024-01-07 10:40:00,SystemResetWarning,0816.9,5.00,000.00,018.7,017.4,000.0,027.2,020.0,7.9,0000.0,0001.10,0001.71,0000.86
2024-01-07 10:41:00,SystemResetWarning,0816.9,5.01,000.00,018.7,017.3,000.0,027.2,020.0,7.9,0000.0,0001.10,0001.73,0000.85
2024-01-07 10:42:00,SystemResetWarning,0816.8,5.00,000.00,018.7,017.3,000.0,027.2,020.0,8.0,0000.0,0001.08,0001.70,0000.85
2024-01-07 10:43:00,SystemResetWarning,0816.9,5.00,000.00,018.7,017.3,000.0,027.2,020.0,8.0,0000.0,0001.07,0001.59,0000.84
2024-01-07 10:44:00,SystemResetWarning,0816.8,5.00,000.00,018.7,017.2,000.0,027.2,020.0,8.0,0000.0,0001.07,0001.57,0000.83
2024-01-07 10:45:00,SystemResetWarning,0816.9,5.00,000.00,018.7,017.2,000.0,027.2,020.0,8.0,0000.0,0001.07,0001.62,0000.82
2024-01-07 10:46:00,SystemResetWarning,0816.9,5.00,000.00,018.7,017.2,000.0,027.2,020.0,8.0,0000.0,0001.10,0001.87,0000.82
2024-01-07 10:47:00,SystemResetWarning,0816.9,4.99,000.00,018.6,017.1,000.0,027.2,020.0,8.0,0000.0,0001.09,0001.90,0000.82
2024-01-07 10:48:00,SystemResetWarning,0816.9,5.00,000.00,018.6,017.1,000.0,027.2,020.0,7.9,0000.0,0001.11,0001.98,0000.81
2024-01-07 10:49:00,SystemResetWarning,0816.9,5.00,000.00,018.6,017.1,000.0,027.2,020.0,8.0,0000.0,0001.09,0001.93,0000.79
2024-01-07 10:50:00,SystemResetWarning,0816.9,5.00,000.00,018.7,017.3,000.0,027.2,020.2,8.0,0000.0,0001.07,0001.88,0000.79
2024-01-07 10:51:00,SystemResetWarning,0816.9,5.01,000.00,018.8,018.2,000.0,027.1,020.6,8.0,0000.0,0001.04,0001.85,0000.76
2024-01-07 10:52:00,SystemResetWarning,0816.9,4.99,000.00,018.9,018.8,000.0,027.2,020.7,8.0,0000.0,0001.04,0001.84,0000.77
2024-01-07 10:53:00,SystemResetWarning,0816.9,4.98,000.00,018.9,018.8,000.0,027.2,020.4,8.0,0000.0,0001.04,0001.83,0000.77
2024-01-07 10:54:00,SystemResetWarning,0816.8,5.01,000.00,018.9,018.6,000.0,027.2,020.2,7.9,0000.0,0001.03,0001.81,0000.77
2024-01-07 10:55:00,SystemResetWarning,0816.8,5.01,000.00,018.9,018.5,000.0,027.1,020.1,8.0,0000.0,0001.04,0001.86,0000.77
2024-01-07 10:56:00,SystemResetWarning,0816.7,4.99,000.00,018.8,018.3,000.0,027.1,020.0,8.0,0000.0,0001.06,0001.90,0000.77
2024-01-07 10:57:00,SystemResetWarning,0816.8,4.99,000.00,018.8,018.1,000.0,027.1,020.0,8.0,0000.0,0001.03,0001.70,0000.77
2024-01-07 10:58:00,SystemResetWarning,0816.8,5.00,000.00,018.8,018.0,000.0,027.2,020.0,8.0,0000.0,0001.04,0001.62,0000.78
2024-01-07 10:59:00,SystemResetWarning,0816.8,5.00,000.00,018.8,017.8,000.0,027.2,020.0,8.0,0000.0,0001.01,0001.50,0000.79
